• In Hungary
  • List of Countries
  • For 7 days
  • Water Temperature
  • Satellite Maps
  • Weather Map
  • News
  • Weather Widgets
  • user-avatar
    Login

    Hourly Weather Maloe Goltino

    Today, 17 August, Friday

    Time Temperature Precipitation Wind Pressure Humidity
    00:00 +13°C° 0 mm 1 mps 744 mmHg 91%
    01:00 +12°C° 0 mm 1 mps 744 mmHg 92%
    02:00 +12°C° 0 mm 1 mps 745 mmHg 93%
    03:00 +12°C° 0 mm 1 mps 745 mmHg 93%
    04:00 +12°C° 0 mm 1 mps 745 mmHg 93%
    05:00 +11°C° 0 mm 1 mps 746 mmHg 94%
    06:00 +14°C° 0 mm 1 mps 746 mmHg 85%
    07:00 +16°C° 0 mm 1 mps 746 mmHg 76%
    08:00 +19°C° 0 mm 1 mps 746 mmHg 68%
    09:00 +19°C° 0 mm 2 mps 746 mmHg 61%
    10:00 +21°C° 0 mm 2 mps 746 mmHg 54%
    11:00 +23°C° 0 mm 2 mps 746 mmHg 48%
    12:00 +23°C° 0 mm 2 mps 746 mmHg 47%
    13:00 +24°C° 0 mm 2 mps 746 mmHg 45%
    14:00 +24°C° 0 mm 2 mps 746 mmHg 44%
    15:00 +24°C° 0 mm 2 mps 745 mmHg 48%
    16:00 +23°C° 0 mm 2 mps 745 mmHg 53%
    17:00 +23°C° 0 mm 1 mps 745 mmHg 57%
    18:00 +21°C° 0 mm 1 mps 745 mmHg 64%
    19:00 +18°C° 0 mm 1 mps 745 mmHg 71%
    20:00 +15°C° 0 mm 1 mps 745 mmHg 78%
    21:00 +14°C° 0 mm 1 mps 745 mmHg 79%
    22:00 +14°C° 0 mm 1 mps 745 mmHg 81%
    23:00 +13°C° 0 mm 1 mps 745 mmHg 83%

    Tomorrow, 18 August, Saturday

    Time Temperature Precipitation Wind Pressure Humidity
    00:00 +13°C° 0 mm 1 mps 745 mmHg 83%
    01:00 +12°C° 0 mm 1 mps 745 mmHg 84%
    02:00 +12°C° 0 mm 1 mps 745 mmHg 84%
    03:00 +12°C° 0 mm 1 mps 745 mmHg 85%
    04:00 +12°C° 0 mm 1 mps 745 mmHg 85%
    05:00 +11°C° 0 mm 1 mps 745 mmHg 86%
    06:00 +14°C° 0 mm 2 mps 745 mmHg 79%
    07:00 +16°C° 0 mm 2 mps 745 mmHg 72%
    08:00 +18°C° 0 mm 2 mps 745 mmHg 65%
    09:00 +20°C° 0 mm 2 mps 745 mmHg 60%
    10:00 +21°C° 0 mm 2 mps 745 mmHg 54%
    11:00 +24°C° 0 mm 3 mps 745 mmHg 48%
    12:00 +24°C° 0 mm 3 mps 745 mmHg 47%
    13:00 +25°C° 0 mm 3 mps 744 mmHg 46%
    14:00 +25°C° 0 mm 3 mps 744 mmHg 46%
    15:00 +25°C° 0 mm 3 mps 744 mmHg 50%
    16:00 +25°C° 0 mm 2 mps 743 mmHg 54%
    17:00 +24°C° 0 mm 2 mps 743 mmHg 59%
    18:00 +21°C° 0 mm 2 mps 743 mmHg 67%
    19:00 +19°C° 0 mm 2 mps 743 mmHg 75%
    20:00 +17°C° 0 mm 2 mps 743 mmHg 83%
    21:00 +16°C° 0 mm 2 mps 743 mmHg 85%
    22:00 +16°C° 0 mm 2 mps 743 mmHg 87%
    23:00 +15°C° 0 mm 2 mps 743 mmHg 89%

    Day after tomorrow, 19 August, Sunday

    Time Temperature Precipitation Wind Pressure Humidity
    00:00 +15°C° 0 mm 2 mps 743 mmHg 89%
    01:00 +15°C° 0 mm 2 mps 743 mmHg 90%
    02:00 +15°C° 0 mm 2 mps 743 mmHg 90%
    03:00 +14°C° 0 mm 3 mps 742 mmHg 89%
    04:00 +14°C° 0 mm 3 mps 742 mmHg 88%
    05:00 +14°C° 0 mm 3 mps 742 mmHg 88%
    06:00 +16°C° 0.1 mm 3 mps 742 mmHg 83%
    07:00 +17°C° 0.1 mm 3 mps 742 mmHg 78%
    08:00 +19°C° 0.1 mm 3 mps 742 mmHg 74%
    09:00 +20°C° 0 mm 4 mps 741 mmHg 70%
    10:00 +21°C° 0 mm 4 mps 741 mmHg 67%
    11:00 +22°C° 0 mm 4 mps 741 mmHg 63%
    12:00 +23°C° 0.3 mm 4 mps 741 mmHg 63%
    13:00 +25°C° 0.3 mm 4 mps 740 mmHg 64%
    14:00 +25°C° 0.3 mm 4 mps 740 mmHg 64%
    15:00 +23°C° 0.7 mm 4 mps 740 mmHg 71%
    16:00 +22°C° 0.7 mm 4 mps 739 mmHg 78%
    17:00 +21°C° 0.7 mm 3 mps 739 mmHg 85%
    18:00 +20°C° 0.5 mm 3 mps 739 mmHg 89%
    19:00 +19°C° 0.5 mm 3 mps 739 mmHg 92%
    20:00 +18°C° 0.5 mm 2 mps 739 mmHg 95%
    21:00 +18°C° 0.2 mm 2 mps 738 mmHg 96%
    22:00 +17°C° 0.2 mm 2 mps 738 mmHg 97%
    23:00 +17°C° 0.2 mm 2 mps 738 mmHg 98%

    20 August, Monday

    Time Temperature Precipitation Wind Pressure Humidity
    00:00 +17°C° 0 mm 2 mps 738 mmHg 98%
    01:00 +16°C° 0 mm 2 mps 738 mmHg 98%
    02:00 +16°C° 0 mm 1 mps 738 mmHg 98%
    03:00 +16°C° 0.1 mm 1 mps 738 mmHg 98%
    04:00 +16°C° 0.1 mm 1 mps 738 mmHg 98%
    05:00 +15°C° 0.1 mm 1 mps 738 mmHg 98%
    06:00 +16°C° 0.6 mm 1 mps 738 mmHg 98%
    07:00 +16°C° 0.6 mm 1 mps 739 mmHg 97%
    08:00 +16°C° 0.6 mm 1 mps 739 mmHg 97%
    09:00 +17°C° 0.4 mm 2 mps 739 mmHg 95%
    10:00 +17°C° 0.4 mm 2 mps 739 mmHg 94%
    11:00 +17°C° 0.4 mm 2 mps 740 mmHg 92%
    12:00 +18°C° 0 mm 2 mps 740 mmHg 84%
    13:00 +19°C° 0 mm 2 mps 740 mmHg 76%
    14:00 +21°C° 0 mm 2 mps 740 mmHg 67%
    15:00 +21°C° 0 mm 2 mps 740 mmHg 66%
    16:00 +21°C° 0 mm 2 mps 740 mmHg 64%
    17:00 +22°C° 0 mm 1 mps 740 mmHg 62%
    18:00 +20°C° 0 mm 1 mps 740 mmHg 69%
    19:00 +18°C° 0 mm 1 mps 740 mmHg 76%
    20:00 +15°C° 0 mm 1 mps 740 mmHg 83%
    21:00 +14°C° 0 mm 1 mps 741 mmHg 85%
    22:00 +14°C° 0 mm 1 mps 741 mmHg 87%
    23:00 +13°C° 0 mm 1 mps 741 mmHg 89%

    21 August, Tuesday

    Time Temperature Precipitation Wind Pressure Humidity
    00:00 +12°C° 0 mm 1 mps 741 mmHg 89%
    01:00 +12°C° 0 mm 1 mps 741 mmHg 89%
    02:00 +12°C° 0 mm 1 mps 741 mmHg 90%
    03:00 +12°C° 0 mm 1 mps 742 mmHg 89%
    04:00 +10°C° 0 mm 0 mps 742 mmHg 88%
    05:00 +10°C° 0 mm 0 mps 742 mmHg 88%
    06:00 +12°C° 0 mm 0 mps 742 mmHg 80%
    07:00 +14°C° 0 mm 0 mps 742 mmHg 73%
    08:00 +16°C° 0 mm 0 mps 742 mmHg 65%
    09:00 +18°C° 0 mm 0 mps 743 mmHg 60%
    10:00 +20°C° 0 mm 0 mps 743 mmHg 54%
    11:00 +24°C° 0 mm 1 mps 743 mmHg 48%
    12:00 +24°C° 0 mm 1 mps 742 mmHg 47%
    13:00 +24°C° 0 mm 1 mps 742 mmHg 46%
    14:00 +24°C° 0 mm 1 mps 742 mmHg 45%
    15:00 +23°C° 0 mm 1 mps 741 mmHg 50%
    16:00 +22°C° 0 mm 1 mps 741 mmHg 55%
    17:00 +22°C° 0 mm 1 mps 741 mmHg 60%
    18:00 +20°C° 0 mm 1 mps 741 mmHg 65%
    19:00 +18°C° 0 mm 1 mps 741 mmHg 69%
    20:00 +16°C° 0 mm 1 mps 741 mmHg 73%
    21:00 +15°C° 0 mm 1 mps 741 mmHg 76%
    22:00 +14°C° 0 mm 2 mps 741 mmHg 79%
    23:00 +14°C° 0 mm 2 mps 741 mmHg 82%

    22 August, Wednesday

    Time Temperature Precipitation Wind Pressure Humidity
    00:00 +13°C° 0 mm 2 mps 741 mmHg 84%
    01:00 +13°C° 0 mm 2 mps 740 mmHg 86%
    02:00 +13°C° 0 mm 2 mps 740 mmHg 88%
    03:00 +13°C° 0 mm 2 mps 740 mmHg 89%
    04:00 +13°C° 0 mm 2 mps 740 mmHg 90%
    05:00 +12°C° 0 mm 3 mps 740 mmHg 92%
    06:00 +14°C° 0 mm 3 mps 740 mmHg 87%
    07:00 +17°C° 0 mm 3 mps 740 mmHg 82%
    08:00 +19°C° 0 mm 4 mps 740 mmHg 78%
    09:00 +20°C° 0 mm 4 mps 739 mmHg 74%
    10:00 +22°C° 0 mm 4 mps 739 mmHg 71%
    11:00 +23°C° 0 mm 4 mps 739 mmHg 68%
    12:00 +25°C° 0 mm 4 mps 739 mmHg 65%
    13:00 +25°C° 0 mm 4 mps 739 mmHg 62%
    14:00 +26°C° 0 mm 4 mps 739 mmHg 59%
    15:00 +26°C° 0 mm 4 mps 739 mmHg 62%
    16:00 +25°C° 0 mm 3 mps 739 mmHg 65%
    17:00 +25°C° 0 mm 2 mps 739 mmHg 68%
    18:00 +23°C° 0 mm 2 mps 739 mmHg 76%
    19:00 +20°C° 0 mm 2 mps 739 mmHg 83%
    20:00 +18°C° 0 mm 2 mps 739 mmHg 91%
    21:00 +18°C° 0 mm 2 mps 739 mmHg 92%
    22:00 +17°C° 0 mm 2 mps 739 mmHg 94%
    23:00 +17°C° 0 mm 2 mps 739 mmHg 96%
    Show more